User: anonymous   Login
Location: Unspecified
(0.0000°N, 0.0000°E)
Time: 02:12:34
(UTC+00:00)
Language:

STARLINK-1728 - Orbit

View from above orbital plane
View from above orbital plane
View from above satellite
View from above satellite

Ground track
Ground track

The orbit is defined by the following mean orbital elements,

1 46582U          26145.29126014 +.00000000 +00000-0 +80219-3 0 00004
2 46582  53.0347 111.5523 0010896  57.8441 302.3630 15.68004155    02
Epoch (UTC): 25 May 2026 06:59:24
Eccentricity: 0.0010896
inclination: 53.0347°
perigee height: 357 km
apogee height: 372 km
right ascension of ascending node: 111.5523°
argument of perigee: 57.8441°
revolutions per day: 15.68004155
mean anomaly at epoch: 302.3630°

The dashed part of the orbit path shows where the satellite is in the earth's shadow,  

DLR